University AP, Davis, CA, CA

9:38 PM PST on December 10, 2019 (GMT -0800)
University AP, Davis, CA

Weather History for KEDU - October, 2019

Change the Weather History Date:

Friday, October 25, 2019

  Actual Average (WUND) Record (WUND)
Temperature  
Mean Temperature 68 °F -  
Max Temperature 86 °F - - (-1)
Min Temperature 50 °F - - (-1)
Cooling Degree Days 3    
Growing Degree Days 18 (Base 50)    
Moisture  
Dew Point 33 °F    
Average Humidity 33    
Maximum Humidity 51    
Minimum Humidity 12    
Precipitation  
Precipitation 0.00 in - - ()
Sea Level Pressure  
Sea Level Pressure 30.06 in    
Wind  
Wind Speed 2 mph ()    
Max Wind Speed 7 mph    
Max Gust Speed -    
Visibility 9.9 miles    
Events      
Averages and records for this station are not official NWS values.
T = Trace of Precipitation, MM = Missing Value Source: Averaged Metar Reports

Daily Weather History Graph

Daily Weather History Graph

Search for Another Location

Airport or City:

Astronomy

Oct. 25, 2019 Rise Set
Actual Time 7:26 AM PDT 6:15 PM PDT
Civil Twilight 6:59 AM PDT 6:42 PM PDT
Nautical Twilight 6:28 AM PDT 7:13 PM PDT
Astronomical Twilight 5:57 AM PDT 7:44 PM PDT
Moon 4:18 AM PDT (10/25) 5:17 PM PDT (10/25)
Length of Visible Light 11h 43m
Length of Day
10h 49m
Waning Crescent, 8% of the Moon is Illuminated
Oct 25
Waning Crescent
Oct 27
New
Nov 4
First Quarter
Nov 12
Full
Nov 19
Last Quarter

Hourly Weather History & Observations

Time (PDT) Temp. Dew Point Humidity Pressure Visibility Wind Dir Wind Speed Gust Speed Precip Events Conditions
12:10 AM 57.2 °F 30.2 °F 36% 30.09 in 10.0 mi Calm Calm - N/A   Clear
12:30 AM 57.2 °F 30.2 °F 36% 30.09 in 10.0 mi Calm Calm - N/A   Clear
12:50 AM 55.4 °F 32.0 °F 41% 30.09 in 10.0 mi Calm Calm - N/A   Clear
1:10 AM 57.2 °F 32.0 °F 38% 30.10 in 10.0 mi Calm Calm - N/A   Clear
1:30 AM 55.4 °F 32.0 °F 41% 30.10 in 10.0 mi Calm Calm - N/A   Clear
1:50 AM 53.6 °F 32.0 °F 44% 30.10 in 10.0 mi Calm Calm - N/A   Clear
2:10 AM 55.4 °F 32.0 °F 41% 30.10 in 10.0 mi Calm Calm - N/A   Clear
2:30 AM 53.6 °F 32.0 °F 44% 30.10 in 10.0 mi Calm Calm - N/A   Clear
2:55 AM 53.6 °F 32.0 °F 44% 30.10 in 10.0 mi Calm Calm - N/A   Clear
3:10 AM 53.6 °F 32.0 °F 44% 30.10 in 10.0 mi WNW 3.5 mph - N/A   Clear
3:30 AM 53.6 °F 30.2 °F 41% 30.09 in 10.0 mi NW 3.5 mph - N/A   Clear
3:50 AM 53.6 °F 30.2 °F 41% 30.09 in 10.0 mi Calm Calm - N/A   Clear
4:10 AM 53.6 °F 28.4 °F 38% 30.09 in 10.0 mi NNW 3.5 mph - N/A   Clear
4:30 AM 50.0 °F 32.0 °F 50% 30.09 in 10.0 mi Calm Calm - N/A   Clear
4:50 AM 53.6 °F 32.0 °F 44% 30.10 in 10.0 mi Calm Calm - N/A   Clear
5:30 AM 55.4 °F 28.4 °F 36% 30.10 in 10.0 mi North 5.8 mph - N/A   Clear
5:55 AM 55.4 °F 32.0 °F 41% 30.11 in 10.0 mi North 4.6 mph - N/A   Clear
6:10 AM 53.6 °F 32.0 °F 44% 30.11 in 10.0 mi NNW 4.6 mph - N/A   Clear
6:50 AM 55.4 °F 32.0 °F 41% 30.11 in 10.0 mi North 5.8 mph - N/A   Clear
7:10 AM 55.4 °F 33.8 °F 44% 30.11 in 10.0 mi North 5.8 mph - N/A   Clear
7:30 AM 51.8 °F 32.0 °F 47% 30.12 in 10.0 mi NNE 6.9 mph - N/A   Clear
7:50 AM 53.6 °F 35.6 °F 51% 30.12 in 10.0 mi North 6.9 mph - N/A   Clear
8:15 AM 53.6 °F 35.6 °F 51% 30.13 in 10.0 mi NNE 4.6 mph - N/A   Clear
8:30 AM 55.4 °F 35.6 °F 47% 30.13 in 7.0 mi NNE 4.6 mph - N/A   Clear
8:55 AM 59.0 °F 35.6 °F 42% 30.14 in 10.0 mi NNE 4.6 mph - N/A   Clear
9:10 AM 60.8 °F 35.6 °F 39% 30.14 in 10.0 mi North 6.9 mph - N/A   Clear
9:30 AM 62.6 °F 35.6 °F 37% 30.14 in 10.0 mi North 5.8 mph - N/A   Clear
9:55 AM 66.2 °F 35.6 °F 32% 30.15 in 10.0 mi North 3.5 mph - N/A   Clear
10:10 AM 68.0 °F 35.6 °F 30% 30.14 in 10.0 mi NNE 6.9 mph - N/A   Clear
10:30 AM 71.6 °F 33.8 °F 25% 30.14 in 10.0 mi NNW 4.6 mph - N/A   Clear
10:50 AM 71.6 °F 32.0 °F 23% 30.13 in 10.0 mi North 4.6 mph - N/A   Clear
11:10 AM 73.4 °F 32.0 °F 22% 30.13 in 10.0 mi North 3.5 mph - N/A   Clear
11:30 AM 75.2 °F 32.0 °F 21% 30.13 in 10.0 mi NE 4.6 mph - N/A   Clear
11:45 AM 75.2 °F 30.2 °F 19% 30.12 in 10.0 mi North 5.8 mph - N/A   Clear
12:35 PM 78.8 °F 30.2 °F 17% 30.10 in 10.0 mi North 5.8 mph - N/A   Clear
12:50 PM 80.6 °F 30.2 °F 16% 30.09 in 10.0 mi North 5.8 mph - N/A   Clear
1:15 PM 82.4 °F 28.4 °F 14% 30.08 in 10.0 mi North 5.8 mph - N/A   Clear
1:30 PM 82.4 °F 28.4 °F 14% 30.07 in 10.0 mi North 5.8 mph - N/A   Clear
1:55 PM 82.4 °F 26.6 °F 13% 30.06 in 10.0 mi NW 4.6 mph - N/A   Clear
2:15 PM 84.2 °F 26.6 °F 12% 30.05 in 10.0 mi NW 3.5 mph - N/A   Clear
2:30 PM 84.2 °F 26.6 °F 12% 30.05 in 10.0 mi NNW 3.5 mph - N/A   Clear
2:55 PM 84.2 °F 26.6 °F 12% 30.04 in 9.0 mi Calm Calm - N/A   Clear
3:10 PM 84.2 °F 26.6 °F 12% 30.03 in 9.0 mi ENE 5.8 mph - N/A   Clear
3:30 PM 86.0 °F 26.6 °F 12% 30.02 in 10.0 mi East 3.5 mph - N/A   Clear
3:50 PM 86.0 °F 26.6 °F 12% 30.02 in 10.0 mi NNE 3.5 mph - N/A   Clear
4:10 PM 86.0 °F 26.6 °F 12% 30.01 in 10.0 mi NE 4.6 mph - N/A   Clear
4:30 PM 86.0 °F 26.6 °F 12% 30.01 in 10.0 mi Calm Calm - N/A   Clear
4:50 PM 86.0 °F 26.6 °F 12% 30.01 in 10.0 mi Calm Calm - N/A   Clear
5:15 PM 84.2 °F 30.2 °F 14% 30.00 in 10.0 mi Calm Calm - N/A   Clear
5:30 PM 82.4 °F 33.8 °F 17% 29.99 in 10.0 mi Calm Calm - N/A   Clear
5:55 PM 77.0 °F 39.2 °F 26% 29.99 in 10.0 mi Calm Calm - N/A   Clear
6:10 PM 77.0 °F 39.2 °F 26% 29.99 in 10.0 mi Calm Calm - N/A   Clear
6:35 PM 71.6 °F 39.2 °F 31% 29.99 in 10.0 mi Calm Calm - N/A   Clear
6:50 PM 73.4 °F 37.4 °F 27% 29.98 in 10.0 mi Calm Calm - N/A   Clear
7:10 PM 69.8 °F 39.2 °F 33% 29.98 in 10.0 mi Calm Calm - N/A   Clear
7:35 PM 68.0 °F 39.2 °F 35% 29.98 in 10.0 mi Calm Calm - N/A   Clear
7:50 PM 66.2 °F 39.2 °F 37% 29.98 in 10.0 mi North - - N/A   Clear
8:10 PM 66.2 °F 39.2 °F 37% 29.98 in 8.0 mi Calm Calm - N/A   Clear
8:35 PM 62.6 °F 39.2 °F 42% 29.98 in 10.0 mi Calm Calm - N/A   Clear
8:50 PM 62.6 °F 37.4 °F 39% 29.98 in 10.0 mi Calm Calm - N/A   Clear
9:10 PM 62.6 °F 37.4 °F 39% 29.98 in 10.0 mi Calm Calm - N/A   Clear
9:30 PM 62.6 °F 37.4 °F 39% 29.98 in 10.0 mi Calm Calm - N/A   Clear
9:50 PM 59.0 °F 37.4 °F 45% 29.97 in 10.0 mi Calm Calm - N/A   Clear
10:15 PM 57.2 °F 39.2 °F 51% 29.97 in 10.0 mi Calm Calm - N/A   Clear
10:30 PM 59.0 °F 37.4 °F 45% 29.98 in 10.0 mi Calm Calm - N/A   Clear
10:50 PM 59.0 °F 35.6 °F 42% 29.98 in 10.0 mi NNW 3.5 mph - N/A   Clear
11:10 PM 59.0 °F 37.4 °F 45% 29.98 in 7.0 mi Calm Calm - N/A   Clear
11:35 PM 59.0 °F 35.6 °F 42% 29.98 in 10.0 mi NNW 3.5 mph - N/A   Clear
11:50 PM 57.2 °F 35.6 °F 44% 29.98 in 10.0 mi North 3.5 mph - N/A   Clear